Weather in Miami Platja

Spain     41°00′38″N   0°56′27″E
temp.,
°C
wind,
m/s
gust,
m/s
humid.,
%
clouds,
%
prec.,
mm/h
press.,
hPa
HPBL,
m
18 january, tue
tue1801:00+8nw55510 0.0 1031152
04:00+8nw55530 0.0 1030152
07:00+8nw55530 0.0 1030157
10:00+9nw44480 0.0 1030168
13:00+12sw12340 0.0 1031326
16:00+12se22420 0.0 1030248
19:00+11ene11480 0.0 1031214
22:00+10ne22510 0.0 1032299
19 january, wed
wed1901:00+10ne22540 0.0 1032326
04:00+9nnw22570 0.0 1032186
07:00+8nnw22500 0.0 1031131
10:00+9nw22470 0.0 1032157
13:00+11sw12420 0.0 1031490
16:00+12w13440 0.0 1030492
19:00+11nnw25530 0.0 1030462
22:00
20 january, thu
thu2001:00+8nw6771100 0.0 1031356
04:00+7nw56760 0.0 1030299
07:00
10:00+7nw67750 0.0 1029284
13:00+11wnw56570 0.0 1028606
16:00+12wnw67530 0.0 1025749
19:00+10wnw59630 0.0 1024484
22:00+10wnw812660 0.0 1024653
21 january, fri
fri2101:00+8wnw79710 0.0 1024439
04:00+7nw89730 0.0 1023397
07:00+6nw910750 0.0 1023400
10:00+6nw911671 0.0 1024481
13:00+9nw88530 0.0 1025661
16:00+10nw77470 0.0 1024780
19:00+9nw78510 0.0 1025417
22:00+6nw78580 0.0 1028306
22 january, sat
sat2201:00+5nw810630 0.0 1029316
04:00+4nw811650 0.0 1029384
07:00+3nw79671 0.0 1029337
10:00+4nw79630 0.0 1030355
13:00+8nw56470 0.0 1029595
16:00+10nw56410 0.0 1027673
19:00+8nw45470 0.0 1028336
22:00+7wnw44510 0.0 1029211